FENGYUN 1C DEB, 35171

Orbit data source: Space-Track

FENGYUN 1C DEB, 35171 is space debris in SSO originally from a launch on Mon, 10 May 1999 UTC launched from the Taiyaun Space Center, China (TSC). Fengyun 1C debris stems from the Chinese weather satellite Fengyun-1C, which was intentionally destroyed by a Chinese anti-satellite missile in 2007. This event dramatically increased the amount of space debris, with thousands of trackable fragments posing hazards to satellites and human spaceflight. The Fengyun 1C debris cloud has become a focal point in discussions about space sustainability and the need for international regulations to prevent the creation of new debris.

Loading next visibility...
Identifier
35171, 1999-025DNB
Orbit
SSO
Country
Flag of CNCN / PRC
Related business
Manufacturer
Unknown
Mission
Spacecraft
Bus & Motor
Unknown
Mass
Unknown
Launch date (UTC)
1999-05-10 (27 years ago)
Launch vehicle
Unknown
Launch site
Taiyaun Space Center, China (TSC)
Object type
Payload
Rocket body
Debris
Shape & HBR
Unknown shape, 0.1 m
Radar Cross Section
Small (<0.1 m²)

Expand to show TLE details & history
Last TLE update: 2 days ago

TLE from 2 days ago
0 FENGYUN 1C DEB
1 35171U 99025DNB 26235.87904528  .00001225  00000-0  85707-3 0  9993
2 35171  99.0244  26.8410 0134486 342.6340  17.0246 13.96121863921031
Epoch: 2026-08-23T21:05Z
TLE epoch observation values (Epoch: 2026-08-23T21:05:49.512Z)
Latitude
0.00003°
Longitude
98.21592°
Altitude
816.54 km
Speed
7.493 km/s
True Right ascension
01h 47m 21s
True Declination
0° 00' 00"
Sunlit
Object was in full shadow at epoch
Visualization orbit readout
Latitude
Unknown
Longitude
Unknown
Altitude
Unknown
Speed
Unknown
Apparent Right ascension
Unknown
Apparent Declination
Unknown
Sunlit
N/A
Visualization observer readout
Local Sidereal Time
00:06:07
Azimuth
Unknown
Elevation
Unknown
Doppler factor
Unknown
Orbital elements
Apogee altitude
1,002.401 km
Perigee altitude
806.52 km
Semi-major axis
7,282.598 km
Eccentricity
0.01345
Inclination
99.0244°
RAAN
26.841°
Arg. of periapsis
342.634°
True anomaly
17.48317°
Mean anomaly
17.0246°
Eccentric anomaly
17.25314°
Mean motion
3.49232 °/min
Orbital period
103.08 mins
BSTAR
0.00085707
Loading maneuver chart data...
Computing Atmospheric mass density...
Loading historical data...
Loading historical data...
Loading historical data...
Loading historical data...
Loading historical data...
Loading historical data...
Loading historical data...

Documentation

Showing up to 5 results
|